CAPE
115 384 1588 1820 1574 1743 1535 1464 1388 1429 1118 917 848 815 809 869 694 739 1013 820 843 557 193 74 36 23 2 0 0 0 0 0 20 651 854 576 515 461 264 373 475 461 885
94 619 1461 1774 1923 2016 2005 1818 1532 1289 1039 815 742 631 467 472 518 428 612 1239 978 536 270 79 67 9 0 0 0 0 0 0 0 0 56 595 344 81 72 150 297 204 560
363 845 1338 1623 2003 2041 1931 1870 1556 1331 839 692 669 596 476 415 452 646 975 1028 772 473 162 88 43 0 0 0 0 0 0 0 0 0 0 0 115 76 1 9 98 49 136
472 802 1219 1477 1880 1982 1838 1754 1660 1539 1336 928 791 705 777 722 539 528 971 727 486 169 76 39 1 0 0 0 0 0 0 0 0 0 0 0 267 394 90 13 33 8 21
530 747 1098 1387 1840 1949 1829 1689 1680 1702 1642 1206 990 987 1087 768 701 873 807 508 290 123 25 2 0 0 0 0 0 0 0 0 0 0 0 0 0 72 254 28 10 16 76
485 676 956 1380 1783 1993 1853 1747 1697 1558 1385 1361 1314 1290 947 694 643 612 520 386 205 13 0 0 0 0 0 0 0 0 0 0 0 0 0 0 0 0 1 13 102 42 82
350 453 922 1393 1635 1834 1829 1747 1666 1588 1562 1756 1652 1275 1007 654 667 144 132 85 127 6 1 0 0 0 0 0 0 0 0 0 0 0 0 0 0 0 0 14 24 19 22
284 315 848 1273 1484 1578 1611 1567 1475 1449 1474 1516 1635 1449 1333 952 190 4 0 1 5 6 4 0 0 0 0 0 0 0 0 0 0 0 0 0 0 0 0 0 1 2 8
4 375 693 925 1164 1394 1383 1358 1352 1342 1425 1471 1576 1472 1284 523 240 46 0 3 8 2 3 1 0 0 0 0 0 0 0 0 0 0 0 0 0 0 0 0 0 0 0
0 345 548 638 717 918 978 1028 1116 1107 1174 1163 1168 1268 1079 219 108 3 0 0 0 2 2 0 0 0 0 0 0 0 0 0 0 0 0 0 0 0 0 0 0 0 0
0 0 212 444 548 594 583 474 521 828 928 954 838 1016 784 3 0 0 0 0 2 5 0 0 0 0 0 0 0 0 0 0 0 0 0 0 0 0 0 0 0 0 0
0 0 0 118 276 333 564 330 103 382 437 444 387 262 0 0 0 0 0 0 0 0 1 0 0 0 0 0 0 0 0 0 0 0 0 0 0 0 0 0 0 0 0
0 0 0 1 42 146 348 310 112 102 76 68 59 3 0 0 0 0 0 0 0 0 0 0 0 0 0 0 0 0 0 0 0 0 0 0 0 0 0 0 0 0 0
0 0 0 0 0 12 67 84 196 215 235 1 0 0 0 0 0 0 0 0 0 0 0 0 0 0 0 0 0 0 0 0 0 0 0 0 0 0 0 0 0 0 0
0 0 0 0 0 0 0 0 0 54 55 0 0 0 0 0 0 0 0 0 0 0 0 0 0 0 0 0 0 0 0 0 0 0 0 0 0 0 0 0 0 0 0
0 0 0 0 0 0 0 0 0 0 0 0 0 0 0 0 0 0 0 0 0 0 0 0 0 0 0 0 0 0 0 0 0 0 0 0 0 0 0 0 0 1 0
0 0 0 0 0 0 0 0 0 0 0 0 0 0 0 0 0 0 0 0 0 0 0 0 0 0 0 0 0 0 0 0 0 0 0 0 0 0 0 0 0 0 0
0 0 0 0 0 0 0 0 0 0 0 0 0 0 0 0 0 0 0 0 0 0 0 0 0 0 0 0 0 0 0 0 0 0 0 0 0 0 0 0 0 0 0
0 0 0 0 0 0 0 0 0 0 0 0 0 0 0 0 0 0 0 0 0 0 0 0 0 0 0 0 0 0 0 0 0 0 0 0 0 0 0 0 0 0 0
0 0 0 0 0 0 0 0 0 0 0 0 0 0 0 0 0 0 0 0 0 0 0 0 0 0 0 0 0 0 0 0 0 0 0 0 0 0 0 0 0 0 0
0 0 0 0 0 0 0 0 0 0 0 0 0 0 0 0 0 0 0 0 0 0 0 0 0 0 0 0 0 0 0 0 0 0 0 0 0 0 0 0 0 0 0
0 0 0 0 0 0 0 0 0 0 0 0 0 0 0 0 0 0 0 0 0 0 0 0 0 0 0 0 0 0 0 0 0 0 0 0 0 0 0 0 0 0 0
0 0 0 0 0 0 0 0 0 0 0 0 0 0 0 0 0 0 0 0 0 0 0 0 0 0 0 0 0 0 0 0 0 0 0 0 0 0 0 0 0 0 0
0 0 0 0 0 0 0 0 0 0 0 0 0 0 0 0 0 0 0 0 0 0 0 0 0 0 0 0 0 0 0 0 0 0 0 0 0 0 0 0 0 0 0
0 0 0 0 0 0 0 0 0 0 0 0 0 0 0 0 0 0 0 0 0 0 0 0 0 0 0 0 0 0 0 0 0 0 0 0 0 0 0 0 0 0 0
0 0 0 0 0 0 0 0 0 0 0 0 0 0 0 0 0 0 0 0 0 0 0 0 0 0 0 0 0 0 0 0 0 0 0 0 0 0 0 0 0 0 0
CIN
-472 -337 -17 0 -5 -1 -4 -3 -8 -6 -32 -49 -44 -39 -29 -10 -17 -5 0 0 0 -11 -27 -89 -117 -135 0 0 0 0 0 0 -24 -4 0 -3 -3 -3 -17 -16 -7 -5 0
-533 -295 -59 -8 0 0 0 0 0 -7 -25 -45 -49 -54 -68 -57 -40 -35 -11 0 0 -8 -18 -87 -105 -163 0 0 0 0 0 0 0 0 -28 -1 -13 -42 -47 -25 -3 -8 0
-441 -241 -85 -37 -7 -4 -6 -5 -12 -12 -43 -43 -37 -46 -62 -64 -42 -5 0 0 -1 -5 -42 -75 -130 0 0 0 0 0 0 0 0 0 0 0 -68 -47 -10 -63 -25 -41 -19
-420 -271 -119 -47 -11 -11 -18 -15 -8 -5 -8 -26 -19 -13 -3 -4 -14 -13 0 -1 -7 -61 -92 -136 -16 0 0 0 0 0 0 0 0 0 0 0 -8 -5 -48 -93 -59 -77 -83
-402 -301 -175 -77 -4 0 -1 -6 -7 0 0 -5 -7 -1 0 -3 0 0 0 -13 -47 -98 -186 -173 0 0 0 0 0 0 0 0 0 0 0 0 0 -33 -12 -100 -44 -142 -61
-425 -325 -212 -90 -9 0 0 0 0 0 0 0 0 0 0 -4 -6 -11 -23 -45 -108 -216 -5 0 0 0 0 0 0 0 0 0 0 0 0 0 0 0 -2 -6 -82 -125 -87
-492 -419 -234 -95 -36 -4 0 0 0 0 0 0 0 0 0 -9 -5 -173 -184 -207 -172 -1 0 0 0 0 0 0 0 0 0 0 0 0 0 0 0 0 0 -3 -3 -2 -1
-521 -476 -257 -128 -63 -27 -11 -6 -7 -1 -1 -1 -1 -2 -1 -8 -182 -372 0 0 -1 -1 0 0 0 0 0 0 0 0 0 0 0 0 0 0 0 0 0 0 -1 0 0
-72 -439 -286 -206 -129 -59 -37 -26 -21 -11 -1 -2 -1 -1 -2 -67 -153 -283 0 0 0 0 0 0 0 0 0 0 0 0 0 0 0 0 0 0 0 0 0 0 0 0 0
0 -479 -388 -320 -265 -179 -140 -99 -56 -36 -13 -7 -4 -2 -7 -160 -223 -352 0 0 0 0 0 0 0 0 0 0 0 0 0 0 0 0 0 0 0 0 0 0 0 0 0
0 0 -524 -399 -328 -279 -254 -268 -235 -126 -79 -51 -47 -16 -53 -135 0 0 0 0 0 0 0 0 0 0 0 0 0 0 0 0 0 0 0 0 0 0 0 0 0 0 0
0 0 0 -562 -443 -387 -243 -316 -439 -236 -204 -187 -179 -203 0 0 0 0 0 0 0 0 0 0 0 0 0 0 0 0 0 0 0 0 0 0 0 0 0 0 0 0 0
0 0 0 -28 -647 -510 -365 -362 -441 -393 -376 -354 -339 -87 0 0 0 0 0 0 0 0 0 0 0 0 0 0 0 0 0 0 0 0 0 0 0 0 0 0 0 0 0
0 0 0 0 0 -592 -534 -487 -373 -324 -267 0 0 0 0 0 0 0 0 0 0 0 0 0 0 0 0 0 0 0 0 0 0 0 0 0 0 0 0 0 0 0 0
0 0 0 0 0 0 0 0 0 -427 -391 0 0 0 0 0 0 0 0 0 0 0 0 0 0 0 0 0 0 0 0 0 0 0 0 0 0 0 0 0 0 0 0
0 0 0 0 0 0 0 0 0 0 0 0 0 0 0 0 0 0 0 0 0 0 0 0 0 0 0 0 0 0 0 0 0 0 0 0 0 0 0 0 0 0 0
0 0 0 0 0 0 0 0 0 0 0 0 0 0 0 0 0 0 0 0 0 0 0 0 0 0 0 0 0 0 0 0 0 0 0 0 0 0 0 0 0 0 0
0 0 0 0 0 0 0 0 0 0 0 0 0 0 0 0 0 0 0 0 0 0 0 0 0 0 0 0 0 0 0 0 0 0 0 0 0 0 0 0 0 0 0
0 0 0 0 0 0 0 0 0 0 0 0 0 0 -14 0 0 0 0 0 0 0 0 0 0 0 0 0 0 0 0 0 0 0 0 0 0 0 0 0 0 0 0
0 0 0 0 0 0 0 0 0 0 0 0 0 0 0 0 0 0 0 0 0 0 0 0 0 0 0 0 0 0 0 0 0 0 0 0 0 0 0 0 0 0 0
0 0 0 0 0 0 0 0 0 0 0 0 0 0 0 0 0 0 0 0 0 0 0 0 0 0 0 0 0 0 0 0 0 0 0 0 0 0 0 0 0 0 0
0 0 0 0 0 0 0 0 0 0 0 0 0 0 0 0 0 0 0 0 0 0 0 0 0 0 0 0 0 0 0 0 0 0 0 0 0 0 0 0 0 0 0
0 0 0 0 0 0 0 0 0 0 0 0 0 0 0 0 0 0 0 0 0 0 0 0 0 0 0 0 0 0 0 0 0 0 0 0 0 0 0 0 0 0 0
0 0 0 0 0 0 0 0 0 0 0 0 0 0 0 0 0 0 0 0 0 0 0 0 0 0 0 0 0 0 0 0 0 0 0 0 0 0 0 0 0 0 0
0 0 0 0 0 0 0 0 0 0 0 0 0 0 0 0 0 0 0 0 0 0 0 0 0 0 0 0 0 0 0 0 0 0 0 0 0 0 0 0 0 0 0
0 0 0 0 0 0 0 0 0 0 0 0 0 0 0 0 0 0 0 0 0 0 0 0 0 0 0 0 0 0 0 0 0 0 0 0 0 0 0 0 0 0 0
Wind_Speed
6 11 16 16 16 15 14 12 12 12 12 12 11 10 9 9 9 8 9 9 10 12 10 9 9 11 10 10 9 8 8 8 11 10 10 11 12 13 12 12 11 7 13
9 12 17 17 16 15 14 14 12 11 11 11 11 10 9 8 7 6 5 11 11 12 10 8 8 10 10 9 8 7 8 8 9 9 8 7 11 11 12 11 9 8 12
10 12 13 17 16 15 13 13 12 12 12 11 10 10 9 8 6 5 5 9 11 10 8 8 7 8 9 8 7 6 6 7 8 9 5 2 4 10 11 10 9 10 11
11 12 11 13 16 15 15 14 12 12 12 13 11 10 9 8 7 6 9 10 9 7 6 5 6 7 7 6 6 4 4 5 8 6 4 2 3 8 9 10 8 9 9
8 11 11 14 15 14 13 14 14 13 12 12 12 11 12 10 6 8 11 10 9 7 6 6 5 6 5 5 5 3 3 5 8 6 6 5 4 8 10 8 8 7 6
7 9 11 17 16 15 15 14 13 13 13 13 13 12 11 11 9 10 9 9 9 6 4 5 4 5 4 5 5 4 5 7 7 5 6 6 5 8 8 8 7 6 6
7 7 10 17 17 16 16 15 15 14 13 13 14 14 12 12 10 6 9 5 7 3 3 4 4 4 4 4 5 5 6 7 5 5 6 5 5 7 6 7 6 6 7
7 6 9 13 13 14 15 14 15 14 13 13 13 13 14 13 11 9 7 7 7 5 4 4 3 4 4 4 5 5 7 8 6 5 5 4 6 5 5 3 3 3 4
6 6 6 9 11 13 13 12 13 14 13 11 11 13 13 14 14 13 10 9 8 7 6 5 3 3 3 4 4 6 9 9 6 4 3 3 4 4 3 2 2 1 1
6 7 8 7 8 9 9 13 13 12 11 10 10 10 10 12 13 14 12 8 9 10 8 7 6 6 4 3 4 5 7 9 6 4 3 3 5 3 2 1 1 0 0
3 6 6 8 8 7 6 7 13 15 16 15 12 10 8 5 7 9 8 9 11 10 10 9 7 6 4 2 3 4 6 3 4 2 1 2 2 1 1 0 0 0 0
7 7 8 8 9 8 7 6 5 6 6 6 6 6 5 6 5 5 7 10 8 9 9 10 10 8 5 1 1 4 2 3 2 1 1 2 1 3 3 2 3 3 3
6 3 9 10 10 10 9 6 3 2 2 2 5 6 6 5 4 3 2 3 3 6 4 6 5 3 4 3 1 2 3 3 2 1 1 1 2 4 4 4 5 4 4
6 7 8 7 9 10 5 6 6 6 5 4 4 6 6 4 5 5 4 4 4 2 4 4 3 4 4 4 4 3 3 3 2 1 2 1 3 5 5 6 6 5 5
10 8 9 6 7 7 6 4 5 6 7 6 5 6 5 5 5 4 4 4 4 4 4 4 4 4 3 3 4 5 5 4 4 2 1 3 4 5 8 8 6 6 6
10 12 11 7 6 5 8 7 6 4 5 5 5 6 6 5 7 6 5 5 4 4 4 4 5 5 4 3 3 3 4 3 4 4 3 2 2 3 7 7 7 8 7
10 10 13 12 6 6 6 6 5 4 4 4 4 6 7 6 5 6 6 6 5 5 6 4 2 1 1 2 3 3 3 3 3 4 4 3 1 2 4 1 7 7 8
12 13 12 12 12 4 0 1 2 3 3 4 3 4 6 7 7 6 5 6 7 5 5 4 4 3 3 3 2 3 3 3 4 4 4 3 3 1 2 2 4 9 12
10 12 14 14 14 11 7 5 4 3 1 1 2 3 5 5 6 6 4 5 8 6 4 5 3 4 4 3 3 3 3 3 4 3 5 4 4 3 2 2 1 4 3
12 12 13 12 16 12 6 5 5 5 5 5 4 2 0 2 5 4 3 4 5 4 3 3 3 1 2 4 2 2 3 4 4 4 4 3 4 4 3 4 3 3 6
14 15 16 17 15 11 6 5 5 5 4 7 6 7 6 2 2 4 2 3 3 4 7 8 3 4 1 2 3 2 2 5 6 5 4 5 5 5 4 4 3 3 4
13 14 16 15 16 12 9 4 4 2 3 3 8 11 14 10 5 1 2 4 4 3 3 4 4 2 3 4 4 2 3 4 5 6 5 5 7 4 5 6 6 6 5
13 13 14 14 15 14 12 8 7 5 5 8 10 10 11 13 13 10 5 3 1 2 4 4 3 5 4 4 5 5 1 6 3 1 6 5 6 5 5 5 6 6 6
10 10 12 13 14 14 14 11 13 9 7 5 5 5 9 12 12 13 12 10 4 1 3 4 4 4 2 4 2 6 3 4 3 5 2 4 4 6 6 5 6 6 6
7 8 8 11 13 13 13 12 9 10 6 6 8 12 12 11 12 13 10 10 9 5 4 5 3 5 4 3 4 3 3 2 1 2 5 4 2 5 6 7 6 6 7
7 7 9 10 12 12 12 12 12 11 9 9 10 9 8 8 9 13 12 10 8 8 7 5 5 5 5 6 4 4 4 5 5 4 4 5 5 5 5 5 7 7 6
Wind_Direction
205 173 175 176 170 165 160 154 147 144 143 141 139 132 124 120 113 112 117 137 129 112 99 92 93 87 76 69 66 64 65 35 37 51 86 85 75 73 68 56 45 46 63
147 176 172 174 173 168 161 156 151 149 148 148 144 140 138 132 126 128 124 134 120 116 106 100 99 96 87 75 63 52 49 41 33 23 29 80 94 80 72 64 57 49 55
150 168 174 173 171 167 161 156 156 155 155 155 154 152 147 141 138 128 140 127 116 109 109 105 106 101 99 91 79 63 49 41 30 11 334 355 120 98 89 70 65 62 60
155 165 175 177 175 170 165 163 163 165 164 162 163 164 158 148 156 150 141 123 115 116 116 111 107 102 93 86 75 53 56 57 41 54 50 50 79 104 106 89 77 66 66
155 167 173 174 177 176 174 173 170 173 174 171 173 175 167 152 147 147 130 124 120 117 119 121 116 104 90 75 65 40 49 50 74 77 71 62 47 68 76 88 101 83 81
156 169 173 175 178 178 178 180 180 181 182 184 179 173 166 162 141 130 139 151 126 120 124 134 127 108 88 77 52 62 44 80 78 82 70 47 53 77 76 59 57 110 129
167 171 173 178 180 181 181 183 179 182 191 189 185 177 183 174 182 167 202 127 133 152 192 153 137 113 100 79 76 65 51 73 83 65 65 53 55 73 72 54 36 48 58
169 174 175 180 180 182 182 185 182 186 194 196 194 186 186 181 156 166 199 206 210 167 205 169 153 129 102 73 58 54 54 82 78 78 57 37 62 73 79 81 47 38 58
169 166 179 185 186 182 185 186 187 189 198 200 195 189 188 169 163 164 181 201 210 209 203 173 168 136 126 104 87 61 65 80 93 75 66 44 40 75 71 81 77 75 50
182 182 181 183 193 193 191 188 187 193 193 202 207 203 184 172 168 164 167 194 193 201 201 177 179 172 153 118 92 60 76 83 91 79 53 23 59 73 65 58 56 257 294
229 207 188 185 189 194 199 210 195 196 191 199 202 203 179 170 169 163 165 186 194 186 197 184 190 179 149 143 112 66 78 84 92 81 79 56 74 130 131 98 71 1 214
222 214 196 190 190 184 200 214 213 201 208 200 183 181 163 173 162 163 167 180 184 181 193 188 188 156 126 156 3 51 71 87 100 100 25 7 174 199 197 202 212 188 160
252 225 203 197 193 189 197 186 178 188 200 201 191 169 162 157 157 152 159 183 175 180 174 176 167 137 168 168 180 142 126 141 140 118 13 352 308 230 212 202 194 188 189
293 309 291 227 191 196 186 189 195 191 197 198 186 176 165 153 169 173 169 180 181 175 172 158 158 169 198 211 185 165 152 144 150 149 272 223 281 242 223 201 211 200 193
13 340 319 228 228 198 188 180 181 192 198 197 175 184 163 167 178 166 173 174 178 165 171 171 176 189 214 205 188 175 170 167 172 173 208 243 277 264 217 208 204 205 200
353 352 339 329 227 196 193 179 191 181 187 176 179 188 185 174 176 177 170 179 185 176 176 177 180 190 209 205 209 199 195 180 177 185 197 247 246 287 229 214 215 206 204
347 341 356 345 316 208 215 180 163 178 164 173 190 192 192 184 183 174 172 173 193 179 164 158 170 158 245 286 224 208 197 207 198 195 200 205 220 39 62 203 230 220 227
359 2 360 3 0 5 58 23 111 151 164 180 189 192 204 203 185 177 177 184 187 170 168 166 163 178 205 209 223 242 236 225 223 218 210 205 210 212 31 44 14 255 224
10 8 10 10 13 4 32 60 49 59 80 167 173 197 224 189 190 186 192 191 174 175 174 175 159 158 181 205 227 237 247 244 239 233 225 216 214 213 221 259 309 333 320
21 22 22 22 16 9 21 33 38 44 25 17 12 326 201 171 174 163 171 167 155 160 151 157 161 168 176 170 173 241 298 279 266 249 231 229 231 232 231 241 264 266 273
32 33 25 23 15 23 10 10 26 26 2 17 20 24 38 51 145 155 167 143 144 194 192 188 133 177 209 136 94 341 272 255 261 245 236 234 231 223 221 234 246 266 277
34 34 34 32 26 23 22 4 32 21 25 17 13 23 20 10 15 18 191 194 172 159 160 178 168 152 181 178 143 62 294 303 246 219 222 222 227 219 223 220 226 237 247
32 30 36 35 34 32 27 27 26 27 21 17 16 21 18 16 12 6 6 24 353 162 190 201 197 194 201 215 209 157 82 246 338 342 238 225 218 218 225 225 230 229 229
20 32 42 39 41 37 34 43 47 49 36 3 354 355 13 24 27 20 12 6 354 341 253 220 207 228 143 209 258 247 207 160 219 319 295 255 231 236 221 229 224 225 225
34 34 33 44 43 39 43 44 56 59 41 29 23 17 12 10 18 17 13 14 10 357 321 283 245 212 207 211 208 191 203 203 153 171 284 305 309 237 229 221 219 227 206
21 39 45 48 45 43 44 41 52 53 48 41 31 29 13 8 10 13 8 4 1 6 358 329 295 277 250 244 256 235 213 190 198 195 229 253 239 267 236 214 220 226 213